Location: Unspecified
(0.0000°N, 0.0000°E)
Time: 01:05:56
(UTC+00:00)

N. Korean satellite - Pass Details

Date: 02 August 2021
Orbit: 448 x 498 km, 97.3° (Epoch: 24 September)

Event Time Altitude Azimuth Distance (km) Brightness Sun altitude
Rises 05:08:51 0° 1° (N) 2,477 10.4 -13.7°
Reaches altitude 10° 05:10:57 10° 355° (N) 1,597 9.4 -13.2°
Maximum altitude 05:14:15 46° 281° (W) 618 6.7 -12.4°
Drops below altitude 10° 05:17:31 10° 206° (SSW) 1,585 8.8 -11.6°
Enters shadow 05:17:49 - 205° (SSW) 1,705 8.9 -11.5°
